Time,TemperatureF,DewpointF,PressureIn,WindDirection,WindDirectionDegrees,WindSpeedMPH,WindSpeedGustMPH,Humidity,HourlyPrecipIn,Conditions,Clouds,dailyrainin,SoftwareType,DateUTC
2013-10-15 00:01:00,38.1,33.3,30.28,SE,135,0.0,0.0,82,0.00,,,0.00,WUHU21636XXSP,2013-10-15 04:01:00,
2013-10-15 00:06:00,37.6,32.2,30.29,SE,135,0.0,0.0,81,0.00,,,0.00,WUHU21636XXSP,2013-10-15 04:06:00,
2013-10-15 00:11:00,37.2,32.4,30.28,SE,135,0.0,0.0,84,0.00,,,0.00,WUHU21636XXSP,2013-10-15 04:11:00,
2013-10-15 00:16:00,37.0,32.5,30.28,SE,135,0.0,0.0,84,0.00,,,0.00,WUHU21636XXSP,2013-10-15 04:16:00,
2013-10-15 00:21:00,36.7,32.2,30.27,SE,135,0.0,0.0,84,0.00,,,0.00,WUHU21636XXSP,2013-10-15 04:21:00,
2013-10-15 00:26:00,36.3,32.2,30.27,SE,135,0.0,0.0,85,0.00,,,0.00,WUHU21636XXSP,2013-10-15 04:26:00,
2013-10-15 00:31:00,36.5,32.5,30.27,SE,135,0.0,0.0,87,0.00,,,0.00,WUHU21636XXSP,2013-10-15 04:31:00,
2013-10-15 00:36:00,36.5,33.1,30.27,SE,135,0.4,0.4,88,0.00,,,0.00,WUHU21636XXSP,2013-10-15 04:36:00,
2013-10-15 00:41:00,36.7,33.3,30.27,SE,135,0.0,0.4,88,0.00,,,0.00,WUHU21636XXSP,2013-10-15 04:41:00,
2013-10-15 00:46:00,37.2,34.2,30.27,SE,135,0.0,0.0,89,0.00,,,0.00,WUHU21636XXSP,2013-10-15 04:46:00,
2013-10-15 00:51:00,37.0,34.0,30.27,SE,135,0.0,0.0,89,0.00,,,0.00,WUHU21636XXSP,2013-10-15 04:51:00,
2013-10-15 00:56:00,36.5,33.1,30.27,SE,135,0.0,0.0,88,0.00,,,0.00,WUHU21636XXSP,2013-10-15 04:56:00,
2013-10-15 01:01:00,36.3,32.9,30.27,SE,135,0.0,0.0,88,0.00,,,0.00,WUHU21636XXSP,2013-10-15 05:01:00,
2013-10-15 01:06:00,36.0,32.5,30.27,SE,135,0.0,0.0,88,0.00,,,0.00,WUHU21636XXSP,2013-10-15 05:06:00,
2013-10-15 01:11:00,35.4,32.0,30.27,SE,135,0.0,0.0,88,0.00,,,0.00,WUHU21636XXSP,2013-10-15 05:11:00,
2013-10-15 01:16:00,35.2,31.8,30.27,SE,135,0.0,0.0,88,0.00,,,0.00,WUHU21636XXSP,2013-10-15 05:16:00,
2013-10-15 01:21:00,34.9,31.5,30.27,SE,135,0.0,0.0,88,0.00,,,0.00,WUHU21636XXSP,2013-10-15 05:21:00,
2013-10-15 01:26:00,34.5,30.9,30.27,SE,135,0.0,0.0,87,0.00,,,0.00,WUHU21636XXSP,2013-10-15 05:26:00,
2013-10-15 01:31:00,34.3,30.7,30.27,SE,135,0.0,0.0,87,0.00,,,0.00,WUHU21636XXSP,2013-10-15 05:31:00,
2013-10-15 01:36:00,34.0,30.4,30.27,SE,135,0.0,0.0,87,0.00,,,0.00,WUHU21636XXSP,2013-10-15 05:36:00,
2013-10-15 01:41:00,33.6,30.0,30.26,SE,135,0.0,0.0,87,0.00,,,0.00,WUHU21636XXSP,2013-10-15 05:41:00,
2013-10-15 01:46:00,33.6,30.0,30.26,SE,135,0.0,0.0,87,0.00,,,0.00,WUHU21636XXSP,2013-10-15 05:46:00,
2013-10-15 01:51:00,33.6,30.0,30.26,SE,135,0.0,0.0,87,0.00,,,0.00,WUHU21636XXSP,2013-10-15 05:51:00,
2013-10-15 01:56:00,33.6,30.2,30.25,SE,135,0.0,0.0,88,0.00,,,0.00,WUHU21636XXSP,2013-10-15 05:56:00,
2013-10-15 02:01:00,34.0,30.6,30.25,SE,135,1.5,1.5,88,0.00,,,0.00,WUHU21636XXSP,2013-10-15 06:01:00,
2013-10-15 02:06:00,34.5,31.5,30.24,SE,135,1.5,1.5,89,0.00,,,0.00,WUHU21636XXSP,2013-10-15 06:06:00,
2013-10-15 02:11:00,34.5,31.8,30.25,SE,135,0.0,1.5,90,0.00,,,0.00,WUHU21636XXSP,2013-10-15 06:11:00,
2013-10-15 02:16:00,34.5,31.8,30.25,SE,135,0.0,0.0,90,0.00,,,0.00,WUHU21636XXSP,2013-10-15 06:16:00,
2013-10-15 02:21:00,34.5,31.8,30.25,SE,135,0.0,0.0,90,0.00,,,0.00,WUHU21636XXSP,2013-10-15 06:21:00,
2013-10-15 02:26:00,34.0,30.9,30.25,SE,135,0.0,0.0,89,0.00,,,0.00,WUHU21636XXSP,2013-10-15 06:26:00,
2013-10-15 02:31:00,33.6,30.9,30.25,SE,135,0.0,0.0,90,0.00,,,0.00,WUHU21636XXSP,2013-10-15 06:31:00,
2013-10-15 02:36:00,33.4,30.7,30.25,SE,135,0.0,0.0,90,0.00,,,0.00,WUHU21636XXSP,2013-10-15 06:36:00,
2013-10-15 02:41:00,33.4,30.7,30.25,SE,135,0.0,0.0,89,0.00,,,0.00,WUHU21636XXSP,2013-10-15 06:41:00,
2013-10-15 02:46:00,33.4,30.7,30.25,SE,135,0.0,0.0,89,0.00,,,0.00,WUHU21636XXSP,2013-10-15 06:46:00,
2013-10-15 02:51:00,33.4,30.7,30.24,SE,135,0.0,0.0,89,0.00,,,0.00,WUHU21636XXSP,2013-10-15 06:51:00,
2013-10-15 02:56:00,33.4,30.7,30.24,SE,135,0.0,0.0,89,0.00,,,0.00,WUHU21636XXSP,2013-10-15 06:56:00,
2013-10-15 03:01:00,33.1,30.4,30.24,SE,135,0.0,0.0,90,0.00,,,0.00,WUHU21636XXSP,2013-10-15 07:01:00,
2013-10-15 03:06:00,33.1,30.4,30.24,SE,135,0.0,0.0,90,0.00,,,0.00,WUHU21636XXSP,2013-10-15 07:06:00,
2013-10-15 03:11:00,32.7,30.0,30.24,SE,135,0.0,0.0,90,0.00,,,0.00,WUHU21636XXSP,2013-10-15 07:11:00,
2013-10-15 03:16:00,32.5,29.8,30.24,SE,135,0.0,0.0,90,0.00,,,0.00,WUHU21636XXSP,2013-10-15 07:16:00,
2013-10-15 03:21:00,32.4,29.7,30.24,SE,135,0.0,0.0,90,0.00,,,0.00,WUHU21636XXSP,2013-10-15 07:21:00,
2013-10-15 03:26:00,32.2,29.5,30.23,SE,135,0.0,0.0,90,0.00,,,0.00,WUHU21636XXSP,2013-10-15 07:26:00,
2013-10-15 03:31:00,31.8,29.3,30.23,SE,135,0.0,0.0,90,0.00,,,0.00,WUHU21636XXSP,2013-10-15 07:31:00,
2013-10-15 03:36:00,31.8,29.3,30.23,SE,135,0.0,0.0,90,0.00,,,0.00,WUHU21636XXSP,2013-10-15 07:36:00,
2013-10-15 03:41:00,31.6,29.1,30.23,SE,135,0.0,0.0,90,0.00,,,0.00,WUHU21636XXSP,2013-10-15 07:41:00,
2013-10-15 03:46:00,31.5,28.9,30.22,SE,135,0.0,0.0,90,0.00,,,0.00,WUHU21636XXSP,2013-10-15 07:46:00,
2013-10-15 03:51:00,31.3,28.8,30.21,SE,135,0.0,0.0,90,0.00,,,0.00,WUHU21636XXSP,2013-10-15 07:51:00,
2013-10-15 03:56:00,31.3,28.8,30.22,SE,135,0.0,0.0,90,0.00,,,0.00,WUHU21636XXSP,2013-10-15 07:56:00,
2013-10-15 04:01:00,31.3,28.8,30.21,SE,135,0.0,0.0,90,0.00,,,0.00,WUHU21636XXSP,2013-10-15 08:01:00,
2013-10-15 04:06:00,31.1,28.6,30.21,SE,135,0.0,0.0,90,0.00,,,0.00,WUHU21636XXSP,2013-10-15 08:06:00,
2013-10-15 04:11:00,31.1,28.6,30.21,SE,135,0.0,0.0,90,0.00,,,0.00,WUHU21636XXSP,2013-10-15 08:11:00,
2013-10-15 04:16:00,31.1,28.6,30.21,SE,135,0.0,0.0,90,0.00,,,0.00,WUHU21636XXSP,2013-10-15 08:16:00,
2013-10-15 04:21:00,31.6,29.1,30.21,SE,135,0.0,0.0,90,0.00,,,0.00,WUHU21636XXSP,2013-10-15 08:21:00,
2013-10-15 04:26:00,32.2,29.5,30.21,SE,135,0.0,0.0,90,0.00,,,0.00,WUHU21636XXSP,2013-10-15 08:26:00,
2013-10-15 04:31:00,32.2,29.5,30.20,SE,135,0.0,0.0,90,0.00,,,0.00,WUHU21636XXSP,2013-10-15 08:31:00,
2013-10-15 04:36:00,32.0,29.5,30.20,SE,135,0.0,0.0,90,0.00,,,0.00,WUHU21636XXSP,2013-10-15 08:36:00,
2013-10-15 04:41:00,31.8,29.3,30.20,SE,135,0.0,0.0,90,0.00,,,0.00,WUHU21636XXSP,2013-10-15 08:41:00,
2013-10-15 04:46:00,32.0,29.5,30.20,SE,135,0.0,0.0,90,0.00,,,0.00,WUHU21636XXSP,2013-10-15 08:46:00,
2013-10-15 04:50:00,31.8,29.3,30.20,SE,135,0.0,0.0,90,0.00,,,0.00,WUHU21636XXSP,2013-10-15 08:50:00,
2013-10-15 04:55:00,31.8,29.3,30.19,SE,135,0.0,0.0,90,0.00,,,0.00,WUHU21636XXSP,2013-10-15 08:55:00,
2013-10-15 05:00:00,31.6,29.1,30.19,SE,135,0.0,0.0,90,0.00,,,0.00,WUHU21636XXSP,2013-10-15 09:00:00,
2013-10-15 05:05:00,31.6,29.1,30.19,SE,135,0.0,0.0,90,0.00,,,0.00,WUHU21636XXSP,2013-10-15 09:05:00,
2013-10-15 05:10:00,31.6,29.1,30.19,SE,135,0.0,0.0,90,0.00,,,0.00,WUHU21636XXSP,2013-10-15 09:10:00,
2013-10-15 05:15:00,31.6,29.1,30.19,SE,135,0.0,0.0,90,0.00,,,0.00,WUHU21636XXSP,2013-10-15 09:15:00,
2013-10-15 05:20:00,31.3,28.8,30.18,SE,135,0.0,0.0,90,0.00,,,0.00,WUHU21636XXSP,2013-10-15 09:20:00,
2013-10-15 05:25:00,31.1,28.6,30.18,SE,135,0.0,0.0,90,0.00,,,0.00,WUHU21636XXSP,2013-10-15 09:25:00,
2013-10-15 05:30:00,31.3,28.8,30.18,SE,135,0.0,0.0,90,0.00,,,0.00,WUHU21636XXSP,2013-10-15 09:30:00,
2013-10-15 05:35:00,31.8,29.3,30.18,SE,135,0.0,0.0,90,0.00,,,0.00,WUHU21636XXSP,2013-10-15 09:35:00,
2013-10-15 05:40:00,32.2,29.5,30.17,SE,135,0.0,0.0,90,0.00,,,0.00,WUHU21636XXSP,2013-10-15 09:40:00,
2013-10-15 05:45:00,32.5,30.2,30.17,SE,135,0.0,0.0,91,0.00,,,0.00,WUHU21636XXSP,2013-10-15 09:45:00,
2013-10-15 05:50:00,32.5,30.2,30.16,SE,135,1.1,1.1,91,0.00,,,0.00,WUHU21636XXSP,2013-10-15 09:50:00,
2013-10-15 05:55:00,32.5,30.2,30.16,SE,135,0.0,1.1,91,0.00,,,0.00,WUHU21636XXSP,2013-10-15 09:55:00,
2013-10-15 06:00:00,32.5,30.2,30.16,SE,135,0.0,1.1,91,0.00,,,0.00,WUHU21636XXSP,2013-10-15 10:00:00,
2013-10-15 06:05:00,32.5,30.2,30.16,SE,135,0.0,0.0,91,0.00,,,0.00,WUHU21636XXSP,2013-10-15 10:05:00,
2013-10-15 06:10:00,32.5,30.0,30.16,SE,135,0.0,0.0,91,0.00,,,0.00,WUHU21636XXSP,2013-10-15 10:10:00,
2013-10-15 06:15:00,32.5,30.2,30.15,SE,135,0.0,0.0,91,0.00,,,0.00,WUHU21636XXSP,2013-10-15 10:15:00,
2013-10-15 06:20:00,32.7,30.4,30.15,SE,135,0.0,0.0,91,0.00,,,0.00,WUHU21636XXSP,2013-10-15 10:20:00,
2013-10-15 06:25:00,32.7,30.4,30.15,SE,135,0.0,0.6,91,0.00,,,0.00,WUHU21636XXSP,2013-10-15 10:25:00,
2013-10-15 06:30:00,32.9,30.4,30.16,SE,135,1.1,1.1,91,0.00,,,0.00,WUHU21636XXSP,2013-10-15 10:30:00,
2013-10-15 06:35:00,33.1,30.6,30.15,SE,135,0.0,1.1,91,0.00,,,0.00,WUHU21636XXSP,2013-10-15 10:35:00,
2013-10-15 06:40:00,33.1,30.6,30.15,SE,135,0.0,0.0,91,0.00,,,0.00,WUHU21636XXSP,2013-10-15 10:40:00,
2013-10-15 06:45:00,33.1,30.6,30.15,SE,135,0.0,0.0,91,0.00,,,0.00,WUHU21636XXSP,2013-10-15 10:45:00,
2013-10-15 06:50:00,32.9,30.4,30.14,SE,135,0.0,0.0,91,0.00,,,0.00,WUHU21636XXSP,2013-10-15 10:50:00,
2013-10-15 06:55:00,33.1,30.6,30.14,SE,135,0.0,0.0,91,0.00,,,0.00,WUHU21636XXSP,2013-10-15 10:55:00,
2013-10-15 07:00:00,33.1,30.6,30.13,SE,135,0.0,0.0,91,0.00,,,0.00,WUHU21636XXSP,2013-10-15 11:00:00,
2013-10-15 07:05:00,33.1,30.6,30.13,SE,135,0.0,0.0,91,0.00,,,0.00,WUHU21636XXSP,2013-10-15 11:05:00,
2013-10-15 07:10:00,33.6,31.1,30.13,SE,135,0.0,0.0,91,0.00,,,0.00,WUHU21636XXSP,2013-10-15 11:10:00,
2013-10-15 07:15:00,34.0,31.5,30.13,SE,135,0.0,0.0,91,0.00,,,0.00,WUHU21636XXSP,2013-10-15 11:15:00,
2013-10-15 07:20:00,34.0,31.5,30.13,SE,135,0.0,0.0,91,0.00,,,0.00,WUHU21636XXSP,2013-10-15 11:20:00,
2013-10-15 07:25:00,33.6,31.1,30.13,SE,135,0.0,0.0,91,0.00,,,0.00,WUHU21636XXSP,2013-10-15 11:25:00,
2013-10-15 07:30:00,33.8,31.3,30.13,SE,135,0.0,0.0,91,0.00,,,0.00,WUHU21636XXSP,2013-10-15 11:30:00,
2013-10-15 07:35:00,34.2,31.6,30.13,SE,135,0.0,0.0,91,0.00,,,0.00,WUHU21636XXSP,2013-10-15 11:35:00,
2013-10-15 07:40:00,34.3,31.8,30.13,SE,135,0.0,0.0,91,0.00,,,0.00,WUHU21636XXSP,2013-10-15 11:40:00,
2013-10-15 07:45:00,34.5,32.0,30.13,SE,135,0.0,0.0,91,0.00,,,0.00,WUHU21636XXSP,2013-10-15 11:45:00,
2013-10-15 07:50:00,34.5,32.0,30.13,SE,135,0.0,0.0,91,0.00,,,0.00,WUHU21636XXSP,2013-10-15 11:50:00,
2013-10-15 07:55:00,34.7,32.2,30.13,SE,135,0.0,0.0,91,0.00,,,0.00,WUHU21636XXSP,2013-10-15 11:55:00,
2013-10-15 08:00:00,34.5,32.0,30.13,SE,135,0.0,0.0,91,0.00,,,0.00,WUHU21636XXSP,2013-10-15 12:00:00,
2013-10-15 08:05:00,34.5,32.0,30.13,SE,135,0.0,0.0,91,0.00,,,0.00,WUHU21636XXSP,2013-10-15 12:05:00,
2013-10-15 08:10:00,34.9,32.4,30.13,SE,135,0.0,0.0,91,0.00,,,0.00,WUHU21636XXSP,2013-10-15 12:10:00,
2013-10-15 08:15:00,34.7,32.2,30.13,SE,135,0.0,0.0,91,0.00,,,0.00,WUHU21636XXSP,2013-10-15 12:15:00,
2013-10-15 08:20:00,34.5,32.0,30.13,SE,135,0.0,0.0,91,0.00,,,0.00,WUHU21636XXSP,2013-10-15 12:20:00,
2013-10-15 08:25:00,34.5,32.0,30.13,SE,135,0.0,0.0,91,0.00,,,0.00,WUHU21636XXSP,2013-10-15 12:25:00,
2013-10-15 08:30:00,34.9,32.4,30.13,SE,135,0.0,0.0,91,0.00,,,0.00,WUHU21636XXSP,2013-10-15 12:30:00,
2013-10-15 08:35:00,37.2,34.5,30.13,SE,135,0.0,0.0,90,0.00,,,0.00,WUHU21636XXSP,2013-10-15 12:35:00,
2013-10-15 08:40:00,40.6,37.9,30.13,SE,135,0.0,0.0,90,0.00,,,0.00,WUHU21636XXSP,2013-10-15 12:40:00,
2013-10-15 08:45:00,41.4,38.8,30.13,SE,135,0.0,0.0,91,0.00,,,0.00,WUHU21636XXSP,2013-10-15 12:45:00,
2013-10-15 08:50:00,41.4,38.8,30.13,SE,135,0.0,0.0,91,0.00,,,0.00,WUHU21636XXSP,2013-10-15 12:50:00,
2013-10-15 08:55:00,42.4,39.9,30.13,SE,135,0.0,0.0,91,0.00,,,0.00,WUHU21636XXSP,2013-10-15 12:55:00,
2013-10-15 09:00:00,43.2,40.5,30.13,SE,135,2.9,2.9,90,0.00,,,0.00,WUHU21636XXSP,2013-10-15 13:00:00,
2013-10-15 09:05:00,43.9,41.2,30.13,SE,135,0.6,2.9,90,0.00,,,0.00,WUHU21636XXSP,2013-10-15 13:05:00,
2013-10-15 09:10:00,45.0,42.3,30.12,SE,135,2.0,2.9,90,0.00,,,0.00,WUHU21636XXSP,2013-10-15 13:10:00,
2013-10-15 09:15:00,45.3,42.6,30.12,SE,135,1.1,2.0,90,0.00,,,0.00,WUHU21636XXSP,2013-10-15 13:15:00,
2013-10-15 09:20:00,45.9,43.2,30.12,SE,135,2.2,2.2,90,0.00,,,0.00,WUHU21636XXSP,2013-10-15 13:20:00,
2013-10-15 09:25:00,46.2,43.7,30.12,South,180,0.0,2.2,91,0.00,,,0.00,WUHU21636XXSP,2013-10-15 13:25:00,
2013-10-15 09:30:00,46.6,44.1,30.12,SSE,157,0.8,5.3,91,0.00,,,0.00,WUHU21636XXSP,2013-10-15 13:30:00,
2013-10-15 09:35:00,46.9,44.4,30.12,SE,135,2.4,8.2,91,0.00,,,0.00,WUHU21636XXSP,2013-10-15 13:35:00,
2013-10-15 09:40:00,46.9,44.4,30.12,SSE,157,2.9,8.2,91,0.00,,,0.00,WUHU21636XXSP,2013-10-15 13:40:00,
2013-10-15 09:45:00,47.1,44.6,30.12,SE,135,4.6,7.3,91,0.00,,,0.00,WUHU21636XXSP,2013-10-15 13:45:00,
2013-10-15 09:50:00,47.5,44.8,30.11,SE,135,3.8,11.4,90,0.00,,,0.00,WUHU21636XXSP,2013-10-15 13:50:00,
2013-10-15 09:55:00,47.8,45.1,30.11,SSE,157,0.6,11.4,90,0.00,,,0.00,WUHU21636XXSP,2013-10-15 13:55:00,
2013-10-15 10:00:00,48.6,46.0,30.11,South,180,2.0,6.4,91,0.00,,,0.00,WUHU21636XXSP,2013-10-15 14:00:00,
2013-10-15 10:05:00,48.9,46.4,30.11,SE,135,1.7,6.4,91,0.00,,,0.00,WUHU21636XXSP,2013-10-15 14:05:00,
2013-10-15 10:10:00,49.8,47.1,30.10,SE,135,0.0,2.2,91,0.00,,,0.00,WUHU21636XXSP,2013-10-15 14:10:00,
2013-10-15 10:15:00,50.2,47.5,30.10,SE,135,1.3,1.7,91,0.00,,,0.00,WUHU21636XXSP,2013-10-15 14:15:00,
2013-10-15 10:20:00,50.7,48.0,30.09,SE,135,5.1,5.1,91,0.00,,,0.00,WUHU21636XXSP,2013-10-15 14:20:00,
2013-10-15 10:25:00,50.9,48.2,30.10,South,180,3.1,5.1,88,0.00,,,0.00,WUHU21636XXSP,2013-10-15 14:25:00,
2013-10-15 10:30:00,51.1,46.9,30.09,SE,135,4.9,12.0,86,0.00,,,0.00,WUHU21636XXSP,2013-10-15 14:30:00,
2013-10-15 10:35:00,51.4,47.3,30.09,SSE,157,7.3,12.0,86,0.00,,,0.00,WUHU21636XXSP,2013-10-15 14:35:00,
2013-10-15 10:40:00,51.4,46.9,30.09,SE,135,2.2,9.8,84,0.00,,,0.00,WUHU21636XXSP,2013-10-15 14:40:00,
2013-10-15 10:45:00,51.6,47.1,30.08,SE,135,4.6,6.9,85,0.00,,,0.00,WUHU21636XXSP,2013-10-15 14:45:00,
2013-10-15 10:50:00,51.6,46.8,30.07,SE,135,5.8,10.5,84,0.00,,,0.00,WUHU21636XXSP,2013-10-15 14:50:00,
2013-10-15 10:55:00,51.6,46.8,30.07,SE,135,2.6,11.4,84,0.00,,,0.00,WUHU21636XXSP,2013-10-15 14:55:00,
2013-10-15 11:00:00,51.6,46.6,30.07,South,180,2.4,11.4,83,0.00,,,0.00,WUHU21636XXSP,2013-10-15 15:00:00,
2013-10-15 11:05:00,51.6,46.6,30.07,SSE,157,1.7,4.9,83,0.00,,,0.00,WUHU21636XXSP,2013-10-15 15:05:00,
2013-10-15 11:10:00,51.6,46.6,30.06,SE,135,1.5,3.3,84,0.00,,,0.00,WUHU21636XXSP,2013-10-15 15:10:00,
2013-10-15 11:15:00,52.0,46.9,30.06,SSE,157,5.1,5.1,83,0.00,,,0.00,WUHU21636XXSP,2013-10-15 15:15:00,
2013-10-15 11:20:00,52.0,46.9,30.05,SE,135,1.3,5.1,83,0.00,,,0.00,WUHU21636XXSP,2013-10-15 15:20:00,
2013-10-15 11:25:00,52.3,46.6,30.04,SE,135,2.4,7.3,81,0.00,,,0.00,WUHU21636XXSP,2013-10-15 15:25:00,
2013-10-15 11:30:00,52.5,46.8,30.04,SSE,157,4.0,7.3,81,0.00,,,0.00,WUHU21636XXSP,2013-10-15 15:30:00,
2013-10-15 11:35:00,53.1,47.1,30.04,SSE,157,4.4,4.4,80,0.00,,,0.00,WUHU21636XXSP,2013-10-15 15:35:00,
2013-10-15 11:40:00,53.6,47.7,30.03,SSE,157,2.6,4.4,80,0.00,,,0.00,WUHU21636XXSP,2013-10-15 15:40:00,
2013-10-15 11:45:00,53.8,46.9,30.03,SSE,157,3.5,6.9,78,0.00,,,0.00,WUHU21636XXSP,2013-10-15 15:45:00,
2013-10-15 11:50:00,54.5,47.3,30.02,SE,135,6.0,10.7,77,0.00,,,0.00,WUHU21636XXSP,2013-10-15 15:50:00,
2013-10-15 11:55:00,54.5,47.1,30.01,SE,135,1.7,11.1,77,0.00,,,0.00,WUHU21636XXSP,2013-10-15 15:55:00,
2013-10-15 12:00:00,55.6,47.7,30.01,SE,135,4.0,11.1,75,0.00,,,0.00,WUHU21636XXSP,2013-10-15 16:00:00,
2013-10-15 12:05:00,55.9,46.9,30.01,SE,135,6.2,10.7,72,0.00,,,0.00,WUHU21636XXSP,2013-10-15 16:05:00,
2013-10-15 12:10:00,56.1,47.1,30.01,SE,135,4.6,10.7,72,0.00,,,0.00,WUHU21636XXSP,2013-10-15 16:10:00,
2013-10-15 12:15:00,56.3,46.6,30.01,South,180,4.4,10.7,70,0.00,,,0.00,WUHU21636XXSP,2013-10-15 16:15:00,
2013-10-15 12:20:00,56.5,46.4,30.00,SSE,157,3.8,10.7,69,0.00,,,0.00,WUHU21636XXSP,2013-10-15 16:20:00,
2013-10-15 12:25:00,56.7,46.0,29.99,SE,135,6.0,11.4,68,0.00,,,0.00,WUHU21636XXSP,2013-10-15 16:25:00,
2013-10-15 12:30:00,56.8,46.6,29.99,SE,135,0.0,11.4,69,0.00,,,0.00,WUHU21636XXSP,2013-10-15 16:30:00,
2013-10-15 12:35:00,57.4,46.4,29.99,SSE,157,5.5,8.5,67,0.00,,,0.00,WUHU21636XXSP,2013-10-15 16:35:00,
2013-10-15 12:40:00,57.6,46.9,29.99,SE,135,4.4,9.3,68,0.00,,,0.00,WUHU21636XXSP,2013-10-15 16:40:00,
2013-10-15 12:45:00,57.9,47.3,29.98,SE,135,5.1,9.3,68,0.00,,,0.00,WUHU21636XXSP,2013-10-15 16:45:00,
2013-10-15 12:50:00,58.6,47.7,29.98,SE,135,6.0,8.9,67,0.00,,,0.00,WUHU21636XXSP,2013-10-15 16:50:00,
2013-10-15 12:55:00,59.0,47.5,29.98,East,90,9.1,16.3,66,0.00,,,0.00,WUHU21636XXSP,2013-10-15 16:55:00,
2013-10-15 13:00:00,59.0,47.5,29.98,South,180,3.3,16.3,65,0.00,,,0.00,WUHU21636XXSP,2013-10-15 17:00:00,
2013-10-15 13:05:00,59.7,47.8,29.98,SSE,157,1.7,11.6,65,0.00,,,0.00,WUHU21636XXSP,2013-10-15 17:05:00,
2013-10-15 13:10:00,59.7,47.8,29.98,SE,135,9.3,13.8,65,0.00,,,0.00,WUHU21636XXSP,2013-10-15 17:10:00,
2013-10-15 13:15:00,59.2,47.1,29.97,SSE,157,7.1,14.0,65,0.00,,,0.00,WUHU21636XXSP,2013-10-15 17:15:00,
2013-10-15 13:20:00,59.7,47.8,29.97,SE,135,9.6,16.5,65,0.00,,,0.00,WUHU21636XXSP,2013-10-15 17:20:00,
2013-10-15 13:25:00,59.4,47.5,29.96,SSE,157,8.0,16.5,65,0.00,,,0.00,WUHU21636XXSP,2013-10-15 17:25:00,
2013-10-15 13:30:00,59.2,47.7,29.95,SE,135,4.6,14.0,66,0.00,,,0.00,WUHU21636XXSP,2013-10-15 17:30:00,
2013-10-15 13:35:00,59.0,47.5,29.95,SE,135,5.5,12.5,66,0.00,,,0.00,WUHU21636XXSP,2013-10-15 17:35:00,
2013-10-15 13:40:00,59.0,47.5,29.94,SSE,157,4.4,13.6,66,0.00,,,0.00,WUHU21636XXSP,2013-10-15 17:40:00,
2013-10-15 13:45:00,59.5,48.0,29.95,SSE,157,3.3,13.6,66,0.00,,,0.00,WUHU21636XXSP,2013-10-15 17:45:00,
2013-10-15 13:50:00,59.5,47.7,29.94,SSE,157,8.9,15.6,65,0.00,,,0.00,WUHU21636XXSP,2013-10-15 17:50:00,
2013-10-15 13:55:00,59.2,47.7,29.93,SSE,157,5.5,15.6,66,0.00,,,0.00,WUHU21636XXSP,2013-10-15 17:55:00,
2013-10-15 14:00:00,59.0,47.5,29.94,SE,135,5.5,14.5,66,0.00,,,0.00,WUHU21636XXSP,2013-10-15 18:00:00,
2013-10-15 14:05:00,59.2,48.2,29.93,SE,135,0.0,9.8,67,0.00,,,0.00,WUHU21636XXSP,2013-10-15 18:05:00,
2013-10-15 14:10:00,59.0,48.0,29.94,SE,135,4.0,10.0,67,0.00,,,0.00,WUHU21636XXSP,2013-10-15 18:10:00,
2013-10-15 14:15:00,59.0,48.0,29.94,SSE,157,3.8,10.5,67,0.00,,,0.00,WUHU21636XXSP,2013-10-15 18:15:00,
2013-10-15 14:19:00,59.0,48.4,29.93,SE,135,3.5,10.5,68,0.00,,,0.00,WUHU21636XXSP,2013-10-15 18:19:00,
2013-10-15 14:25:00,59.0,48.4,29.93,SSE,157,4.0,10.2,68,0.00,,,0.00,WUHU21636XXSP,2013-10-15 18:25:00,
2013-10-15 14:29:00,59.2,48.0,29.92,SSE,157,5.1,11.4,67,0.00,,,0.00,WUHU21636XXSP,2013-10-15 18:29:00,
2013-10-15 14:34:00,59.0,48.4,29.92,SSE,157,3.1,11.4,68,0.00,,,0.00,WUHU21636XXSP,2013-10-15 18:34:00,
2013-10-15 14:40:00,59.2,48.6,29.92,SE,135,2.0,8.7,68,0.00,,,0.00,WUHU21636XXSP,2013-10-15 18:40:00,
2013-10-15 14:45:00,59.2,48.6,29.91,SE,135,0.8,4.0,69,0.00,,,0.00,WUHU21636XXSP,2013-10-15 18:45:00,
2013-10-15 14:50:00,59.4,48.7,29.91,SE,135,1.5,17.4,68,0.00,,,0.00,WUHU21636XXSP,2013-10-15 18:50:00,
2013-10-15 14:54:00,59.5,48.9,29.91,SE,135,1.7,17.4,68,0.00,,,0.00,WUHU21636XXSP,2013-10-15 18:54:00,
2013-10-15 14:59:00,59.5,48.9,29.91,SSE,157,4.4,4.4,68,0.00,,,0.00,WUHU21636XXSP,2013-10-15 18:59:00,
2013-10-15 15:04:00,59.7,49.1,29.91,ESE,112,4.2,4.6,68,0.00,,,0.00,WUHU21636XXSP,2013-10-15 19:04:00,
2013-10-15 15:09:00,60.1,49.1,29.91,SSE,157,4.9,4.9,67,0.00,,,0.00,WUHU21636XXSP,2013-10-15 19:09:00,
2013-10-15 15:14:00,60.4,49.8,29.91,SE,135,4.2,4.9,68,0.00,,,0.00,WUHU21636XXSP,2013-10-15 19:14:00,
2013-10-15 15:19:00,60.4,48.9,29.90,SSE,157,3.3,8.7,67,0.00,,,0.00,WUHU21636XXSP,2013-10-15 19:19:00,
2013-10-15 15:24:00,60.8,49.3,29.90,SE,135,2.4,8.7,66,0.00,,,0.00,WUHU21636XXSP,2013-10-15 19:24:00,
2013-10-15 15:29:00,60.6,49.1,29.90,SE,135,4.4,9.1,66,0.00,,,0.00,WUHU21636XXSP,2013-10-15 19:29:00,
2013-10-15 15:34:00,60.6,49.1,29.90,SE,135,4.0,9.1,66,0.00,,,0.00,WUHU21636XXSP,2013-10-15 19:34:00,
2013-10-15 15:39:00,60.8,49.3,29.90,SE,135,2.9,4.0,66,0.00,,,0.00,WUHU21636XXSP,2013-10-15 19:39:00,
2013-10-15 15:44:00,60.8,49.3,29.89,SSE,157,2.6,4.0,66,0.00,,,0.00,WUHU21636XXSP,2013-10-15 19:44:00,
2013-10-15 15:49:00,60.6,49.1,29.89,SE,135,4.2,4.2,66,0.00,,,0.00,WUHU21636XXSP,2013-10-15 19:49:00,
2013-10-15 15:54:00,60.6,49.1,29.88,SE,135,3.3,4.2,66,0.00,,,0.00,WUHU21636XXSP,2013-10-15 19:54:00,
2013-10-15 15:59:00,60.6,49.1,29.88,South,180,3.3,4.2,66,0.00,,,0.00,WUHU21636XXSP,2013-10-15 19:59:00,
2013-10-15 16:04:00,60.6,49.6,29.88,SE,135,4.9,9.8,67,0.00,,,0.00,WUHU21636XXSP,2013-10-15 20:04:00,
2013-10-15 16:09:00,60.6,49.6,29.88,SE,135,0.4,9.8,67,0.00,,,0.00,WUHU21636XXSP,2013-10-15 20:09:00,
2013-10-15 16:14:00,60.6,49.6,29.88,SE,135,1.7,4.9,68,0.00,,,0.00,WUHU21636XXSP,2013-10-15 20:14:00,
2013-10-15 16:19:00,60.6,49.6,29.88,SSE,157,0.4,1.7,67,0.00,,,0.00,WUHU21636XXSP,2013-10-15 20:19:00,
2013-10-15 16:24:00,60.6,49.6,29.87,SSE,157,3.5,3.5,68,0.00,,,0.00,WUHU21636XXSP,2013-10-15 20:24:00,
2013-10-15 16:29:00,60.4,49.8,29.86,SE,135,2.6,3.5,68,0.00,,,0.00,WUHU21636XXSP,2013-10-15 20:29:00,
2013-10-15 16:34:00,60.1,49.8,29.86,SSE,157,0.0,4.6,69,0.00,,,0.00,WUHU21636XXSP,2013-10-15 20:34:00,
2013-10-15 16:39:00,59.9,50.2,29.86,SE,135,1.1,4.6,70,0.00,,,0.00,WUHU21636XXSP,2013-10-15 20:39:00,
2013-10-15 16:44:00,59.7,50.0,29.85,SE,135,0.0,2.9,70,0.00,,,0.00,WUHU21636XXSP,2013-10-15 20:44:00,
2013-10-15 16:49:00,59.4,50.0,29.84,SE,135,4.2,4.2,71,0.00,,,0.00,WUHU21636XXSP,2013-10-15 20:49:00,
2013-10-15 16:54:00,60.4,50.0,29.84,SE,135,0.0,4.2,72,0.00,,,0.00,WUHU21636XXSP,2013-10-15 20:54:00,
2013-10-15 16:59:00,59.0,50.0,29.84,SE,135,2.4,4.2,74,0.00,,,0.00,WUHU21636XXSP,2013-10-15 20:59:00,
2013-10-15 17:04:00,58.3,51.1,29.82,SE,135,1.1,3.8,77,0.00,,,0.00,WUHU21636XXSP,2013-10-15 21:04:00,
2013-10-15 17:09:00,57.6,51.1,29.83,SE,135,2.9,7.3,79,0.00,,,0.00,WUHU21636XXSP,2013-10-15 21:09:00,
2013-10-15 17:14:00,57.0,50.9,29.82,East,90,2.6,7.3,80,0.00,,,0.00,WUHU21636XXSP,2013-10-15 21:14:00,
2013-10-15 17:19:00,56.8,50.9,29.82,ESE,112,2.0,2.9,81,0.00,,,0.00,WUHU21636XXSP,2013-10-15 21:19:00,
2013-10-15 17:24:00,56.5,50.9,29.82,SE,135,3.1,3.1,82,0.00,,,0.00,WUHU21636XXSP,2013-10-15 21:24:00,
2013-10-15 17:29:00,56.5,51.3,29.82,SE,135,2.9,6.9,83,0.00,,,0.00,WUHU21636XXSP,2013-10-15 21:29:00,
2013-10-15 17:34:00,56.3,51.4,29.81,ESE,112,3.1,6.9,84,0.00,,,0.00,WUHU21636XXSP,2013-10-15 21:34:00,
2013-10-15 17:40:00,52.5,51.6,29.81,SE,135,2.6,4.4,84,0.00,,,0.00,WUHU21636XXSP,2013-10-15 21:40:00,
2013-10-15 17:44:00,56.1,51.3,29.81,SE,135,3.5,4.9,84,0.00,,,0.00,WUHU21636XXSP,2013-10-15 21:44:00,
2013-10-15 17:50:00,56.1,51.6,29.80,SE,135,2.4,10.9,85,0.00,,,0.00,WUHU21636XXSP,2013-10-15 21:50:00,
2013-10-15 17:54:00,55.9,51.4,29.80,SE,135,1.1,10.9,85,0.00,,,0.00,WUHU21636XXSP,2013-10-15 21:54:00,
2013-10-15 18:00:00,55.8,51.4,29.80,SE,135,4.9,6.0,86,0.00,,,0.00,WUHU21636XXSP,2013-10-15 22:00:00,
2013-10-15 18:05:00,55.6,51.6,29.80,South,180,1.7,7.1,87,0.00,,,0.00,WUHU21636XXSP,2013-10-15 22:05:00,
2013-10-15 18:10:00,55.4,51.4,29.80,SE,135,2.9,7.1,87,0.00,,,0.00,WUHU21636XXSP,2013-10-15 22:10:00,
2013-10-15 18:15:00,55.4,51.8,29.80,SE,135,2.4,2.9,88,0.00,,,0.00,WUHU21636XXSP,2013-10-15 22:15:00,
2013-10-15 18:20:00,55.2,51.6,29.80,SE,135,2.6,7.8,88,0.00,,,0.00,WUHU21636XXSP,2013-10-15 22:20:00,
2013-10-15 18:25:00,55.2,51.6,29.80,SE,135,3.5,17.4,88,0.00,,,0.00,WUHU21636XXSP,2013-10-15 22:25:00,
2013-10-15 18:30:00,55.2,51.6,29.80,SE,135,1.3,17.4,88,0.00,,,0.00,WUHU21636XXSP,2013-10-15 22:30:00,
2013-10-15 18:35:00,55.2,52.0,29.79,SE,135,7.8,8.2,89,0.00,,,0.00,WUHU21636XXSP,2013-10-15 22:35:00,
2013-10-15 18:40:00,55.2,52.0,29.79,SSE,157,3.5,19.2,89,0.00,,,0.00,WUHU21636XXSP,2013-10-15 22:40:00,
2013-10-15 18:45:00,55.0,51.8,29.78,ESE,112,3.8,19.2,89,0.00,,,0.00,WUHU21636XXSP,2013-10-15 22:45:00,
2013-10-15 18:50:00,55.0,51.8,29.78,SE,135,2.9,7.8,89,0.00,,,0.00,WUHU21636XXSP,2013-10-15 22:50:00,
2013-10-15 18:54:00,55.0,51.8,29.78,SSE,157,4.0,6.9,89,0.00,,,0.00,WUHU21636XXSP,2013-10-15 22:54:00,
2013-10-15 19:00:00,55.0,52.2,29.77,SSE,157,8.9,21.0,90,0.00,,,0.00,WUHU21636XXSP,2013-10-15 23:00:00,
2013-10-15 19:05:00,55.0,52.2,29.77,SE,135,8.0,21.0,90,0.00,,,0.00,WUHU21636XXSP,2013-10-15 23:05:00,
2013-10-15 19:10:00,55.0,52.2,29.77,SE,135,4.4,8.5,90,0.00,,,0.00,WUHU21636XXSP,2013-10-15 23:10:00,
2013-10-15 19:15:00,55.0,52.2,29.77,SSE,157,3.1,8.2,90,0.00,,,0.00,WUHU21636XXSP,2013-10-15 23:15:00,
2013-10-15 19:20:00,55.0,52.2,29.77,SSE,157,4.6,16.1,90,0.00,,,0.00,WUHU21636XXSP,2013-10-15 23:20:00,
2013-10-15 19:25:00,55.2,52.3,29.76,East,90,6.0,19.0,90,0.00,,,0.00,WUHU21636XXSP,2013-10-15 23:25:00,
2013-10-15 19:30:00,55.2,52.3,29.76,SE,135,3.3,19.0,90,0.00,,,0.00,WUHU21636XXSP,2013-10-15 23:30:00,
2013-10-15 19:35:00,55.2,52.3,29.77,SE,135,3.5,10.0,90,0.00,,,0.00,WUHU21636XXSP,2013-10-15 23:35:00,
2013-10-15 19:40:00,55.2,52.3,29.77,SE,135,3.1,10.0,90,0.00,,,0.00,WUHU21636XXSP,2013-10-15 23:40:00,
2013-10-15 19:45:00,55.4,52.5,29.77,SSE,157,3.1,13.8,90,0.00,,,0.00,WUHU21636XXSP,2013-10-15 23:45:00,
2013-10-15 19:50:00,55.6,52.7,29.77,SSE,157,3.5,13.8,90,0.00,,,0.00,WUHU21636XXSP,2013-10-15 23:50:00,
2013-10-15 19:55:00,55.6,52.7,29.77,SE,135,3.3,13.8,90,0.00,,,0.00,WUHU21636XXSP,2013-10-15 23:55:00,
2013-10-15 20:00:00,55.6,52.7,29.76,SE,135,5.3,7.1,90,0.00,,,0.00,WUHU21636XXSP,2013-10-16 00:00:00,
2013-10-15 20:05:00,55.8,52.9,29.77,South,180,1.7,25.9,90,0.00,,,0.00,WUHU21636XXSP,2013-10-16 00:05:00,
2013-10-15 20:10:00,55.8,52.9,29.77,NW,315,4.9,25.9,90,0.00,,,0.00,WUHU21636XXSP,2013-10-16 00:10:00,
2013-10-15 20:15:00,55.8,52.9,29.77,SE,135,0.0,4.9,90,0.00,,,0.00,WUHU21636XXSP,2013-10-16 00:15:00,
2013-10-15 20:20:00,55.8,52.9,29.77,SSE,157,0.0,4.9,90,0.00,,,0.00,WUHU21636XXSP,2013-10-16 00:20:00,
2013-10-15 20:25:00,55.8,52.9,29.77,South,180,0.8,4.2,90,0.00,,,0.00,WUHU21636XXSP,2013-10-16 00:25:00,
2013-10-15 20:30:00,55.9,53.1,29.77,SSE,157,1.1,1.1,90,0.00,,,0.00,WUHU21636XXSP,2013-10-16 00:30:00,
2013-10-15 20:35:00,55.9,53.1,29.76,East,90,0.8,1.1,90,0.00,,,0.00,WUHU21636XXSP,2013-10-16 00:35:00,
2013-10-15 20:40:00,55.9,53.1,29.76,SSW,202,2.9,2.9,91,0.00,,,0.00,WUHU21636XXSP,2013-10-16 00:40:00,
2013-10-15 20:45:00,55.9,53.1,29.76,SW,225,0.0,2.9,91,0.00,,,0.00,WUHU21636XXSP,2013-10-16 00:45:00,
2013-10-15 20:50:00,55.9,53.1,29.76,SE,135,2.6,2.9,91,0.00,,,0.00,WUHU21636XXSP,2013-10-16 00:50:00,
2013-10-15 20:55:00,55.9,53.2,29.76,SSE,157,2.2,8.9,91,0.00,,,0.00,WUHU21636XXSP,2013-10-16 00:55:00,
2013-10-15 21:00:00,55.9,53.2,29.76,SSE,157,2.9,8.9,91,0.00,,,0.00,WUHU21636XXSP,2013-10-16 01:00:00,
2013-10-15 21:05:00,55.9,53.2,29.76,SSW,202,0.6,8.2,91,0.00,,,0.00,WUHU21636XXSP,2013-10-16 01:05:00,
2013-10-15 21:10:00,55.9,53.2,29.76,South,180,0.6,2.9,91,0.00,,,0.00,WUHU21636XXSP,2013-10-16 01:10:00,
2013-10-15 21:15:00,56.1,53.4,29.76,SSE,157,0.0,2.9,91,0.00,,,0.00,WUHU21636XXSP,2013-10-16 01:15:00,
2013-10-15 21:20:00,56.1,53.4,29.75,SSE,157,0.0,1.7,91,0.00,,,0.00,WUHU21636XXSP,2013-10-16 01:20:00,
2013-10-15 21:25:00,55.9,53.2,29.75,SSE,157,0.0,1.5,91,0.00,,,0.00,WUHU21636XXSP,2013-10-16 01:25:00,
2013-10-15 21:30:00,56.1,53.4,29.75,SE,135,0.0,2.2,91,0.00,,,0.00,WUHU21636XXSP,2013-10-16 01:30:00,
2013-10-15 21:35:00,56.1,53.4,29.75,SSE,157,2.0,2.2,91,0.00,,,0.00,WUHU21636XXSP,2013-10-16 01:35:00,
2013-10-15 21:40:00,56.1,53.4,29.75,SSE,157,0.0,2.0,91,0.00,,,0.00,WUHU21636XXSP,2013-10-16 01:40:00,
2013-10-15 21:45:00,56.1,53.4,29.75,SE,135,0.0,2.0,91,0.00,,,0.00,WUHU21636XXSP,2013-10-16 01:45:00,
2013-10-15 21:50:00,56.1,53.4,29.75,SSW,202,0.0,2.6,91,0.00,,,0.00,WUHU21636XXSP,2013-10-16 01:50:00,
2013-10-15 21:55:00,56.1,53.4,29.75,South,180,0.0,8.2,91,0.00,,,0.00,WUHU21636XXSP,2013-10-16 01:55:00,
2013-10-15 22:00:00,56.1,53.4,29.74,SE,135,1.1,8.2,91,0.00,,,0.00,WUHU21636XXSP,2013-10-16 02:00:00,
2013-10-15 22:05:00,56.1,53.4,29.74,SE,135,0.0,3.5,91,0.00,,,0.00,WUHU21636XXSP,2013-10-16 02:05:00,
2013-10-15 22:09:00,56.1,53.4,29.74,SE,135,0.0,4.4,91,0.00,,,0.00,WUHU21636XXSP,2013-10-16 02:09:00,
2013-10-15 22:14:00,56.3,53.6,29.74,SE,135,0.0,4.4,91,0.00,,,0.00,WUHU21636XXSP,2013-10-16 02:14:00,
2013-10-15 22:35:00,56.5,53.9,29.74,SSW,202,0.0,0.0,91,0.00,,,0.00,WUHU21636XXSP,2013-10-16 02:35:00,
2013-10-15 22:40:00,56.5,53.8,29.73,WSW,247,0.8,0.8,91,0.00,,,0.00,WUHU21636XXSP,2013-10-16 02:40:00,
2013-10-15 22:45:00,56.8,54.1,29.73,South,180,0.8,8.7,91,0.00,,,0.00,WUHU21636XXSP,2013-10-16 02:45:00,
2013-10-15 22:50:00,56.8,54.1,29.73,SSE,157,2.0,8.7,91,0.00,,,0.00,WUHU21636XXSP,2013-10-16 02:50:00,
2013-10-15 22:55:00,56.8,54.1,29.73,SE,135,3.5,10.5,91,0.00,,,0.00,WUHU21636XXSP,2013-10-16 02:55:00,
2013-10-15 23:00:00,57.0,54.3,29.73,South,180,3.8,10.5,91,0.00,,,0.00,WUHU21636XXSP,2013-10-16 03:00:00,
2013-10-15 23:05:00,57.0,54.3,29.73,SSE,157,0.0,3.8,91,0.00,,,0.00,WUHU21636XXSP,2013-10-16 03:05:00,
2013-10-15 23:10:00,57.0,54.3,29.73,SSW,202,5.8,7.3,91,0.00,,,0.00,WUHU21636XXSP,2013-10-16 03:10:00,
2013-10-15 23:15:00,57.2,54.5,29.73,SSE,157,0.2,8.7,91,0.00,,,0.00,WUHU21636XXSP,2013-10-16 03:15:00,
2013-10-15 23:20:00,57.4,54.7,29.73,SW,225,0.0,8.7,91,0.00,,,0.00,WUHU21636XXSP,2013-10-16 03:20:00,
2013-10-15 23:25:00,57.4,54.7,29.73,South,180,6.2,6.4,91,0.00,,,0.00,WUHU21636XXSP,2013-10-16 03:25:00,
2013-10-15 23:30:00,57.4,54.7,29.73,SSW,202,0.0,8.5,91,0.00,,,0.00,WUHU21636XXSP,2013-10-16 03:30:00,
2013-10-15 23:35:00,57.6,54.9,29.73,SSW,202,0.2,8.5,91,0.00,,,0.00,WUHU21636XXSP,2013-10-16 03:35:00,
2013-10-15 23:40:00,57.4,54.7,29.73,SSE,157,0.0,1.3,91,0.00,,,0.00,WUHU21636XXSP,2013-10-16 03:40:00,
2013-10-15 23:45:00,57.4,54.7,29.72,South,180,0.0,4.2,91,0.00,,,0.00,WUHU21636XXSP,2013-10-16 03:45:00,
2013-10-15 23:50:00,57.6,54.9,29.72,SSE,157,0.0,4.2,91,0.00,,,0.00,WUHU21636XXSP,2013-10-16 03:50:00,
2013-10-15 23:55:00,57.6,54.9,29.72,SSE,157,0.0,3.5,91,0.00,,,0.00,WUHU21636XXSP,2013-10-16 03:55:00,